Weather Service Report


598 
ASUS45 KBOU 301210
RWRCO 

WEATHER ROUNDUP FOR COLORADO
NATIONAL WEATHER SERVICE DENVER/BOULDER CO
600 AM MDT THU JUL 30 2015

NOTE: "FAIR" INDICATES FEW OR NO CLOUDS BELOW 12000 FEET WITH NO
SIGNIFICANT WEATHER AND/OR OBSTRUCTIONS TO VISIBILITY.

COZ001>005-013-030-031-301300-
...NORTHWEST COLORADO...
  
CITY           SKY/WX    TMP DP  RH WIND       PRES   REMARKS
CRAIG          CLEAR     38  29  70 CALM      30.42R                  
HAYDEN         CLEAR     46  27  46 E13       30.43S                  
MEEKER         CLEAR     41  28  60 CALM      30.42R                  
MOUNT WERNER   NOT AVBL                                               
STEAMBOAT SPGS CLEAR     40  29  65 CALM      30.46R                  
WALDEN         CLEAR     34  30  86 SE5       30.54R WCI  30          
$$

COZ006>008-011-301300-
...WEST CENTRAL VALLEYS...
  
CITY           SKY/WX    TMP DP  RH WIND       PRES   REMARKS
GRAND JUNCTION CLEAR     60  28  29 E5        30.27R                  
MONTROSE       CLEAR     53  35  50 SE5       30.37R                  
EAGLE          PTCLDY    46  34  61 E3        30.48R                  
RIFLE          CLEAR     51  28  41 CALM      30.36R                  
DELTA          CLEAR     55  35  46 CALM      30.33R                  
NUCLA          CLEAR     57  32  38 E5        30.40S                  
$$

COZ017>023-064>068-301300-
...SOUTHWEST COLORADO...
  
CITY           SKY/WX    TMP DP  RH WIND       PRES   REMARKS
DURANGO        CLEAR     54  46  74 CALM      30.43R                  
CORTEZ         CLEAR     51  46  83 CALM      30.37R                  
PAGOSA SPRINGS CLEAR     52  48  86 CALM      30.50R                  
TELLURIDE      CLEAR     51  36  56 E5        30.60R                  
WOLF CREEK PAS NOT AVBL                                               
$$

COZ009-010-012-014-032>034-037-058>063-301300-
...CENTRAL COLORADO...
  
CITY           SKY/WX    TMP DP  RH WIND       PRES   REMARKS
ASPEN          PTCLDY    48  35  60 S7        30.50R                  
BUENA VISTA    CLEAR     49  45  87 CALM      30.53R                  
COPPER MTN     PTCLDY    54  32  43 S6        30.79R                  
BERTHOUD PASS  FAIR      43  32  65 W16G24    30.83R                  
COTTONWOOD PAS CLEAR     55  43  62 S7        30.64R                  
GUNNISON         N/A     45  39  81 CALM      30.55                   
KREMMLING      PTCLDY    37  30  75 CALM      30.54R                  
LEADVILLE      PTCLDY    39  38  96 NE8       30.64R                  
MONARCH PASS   PTCLDY    46  36  66 SW7       30.87S                  
SALIDA         CLEAR     51  46  82 CALM      30.58R                  
SUNLIGHT       CLEAR     55  23  28 CALM      30.72R                  
WILKERSON PASS CLEAR     50  36  57 N3        30.76R                  
$$

COZ069>075-301300-
...SAN LUIS VALLEY/SANGRE DE CRISTO MOUNTAINS...
  
CITY           SKY/WX    TMP DP  RH WIND       PRES   REMARKS
ALAMOSA        PTCLDY    50  47  89 E3        30.49R                  
LA VETA PASS   FOG       45  45 100 MISG      30.65S VSB 1/2          
SAGUACHE       PTCLDY    50  45  81 NW9       30.53R                  
$$

COZ035-036-038>040-301300-
...NORTHERN COLORADO FRONT RANGE...
  
CITY           SKY/WX    TMP DP  RH WIND       PRES   REMARKS
DENVER INTL AP PTCLDY    59  50  72 W8        30.32R                  
DMNS CITY PARK   N/A     60  51  72 W2G9      30.33R                  
AURORA         PTCLDY    59  51  75 W7        30.35R                  
FRONT RANGE AP NOT AVBL                                               
ERIE MUNI ARPT CLEAR     58  51  77 CALM      30.32R                  
BOULDER MUN AP CLEAR     57  52  82 CALM      30.32R                  
CENTENNIAL     PTCLDY    62  51  67 W6        30.35R                  
BROOMFIELD     CLEAR     59  50  72 CALM      30.35R                  
FORT COLLINS   PTCLDY    55  46  71 N6        30.32R                  
LONGMONT       PTCLDY    55  49  80 CALM      30.33R                  
$$

COZ041-046-047-076>085-087-088-301300-
...PIKES PEAK/PALMER DIVIDE AND SOUTHERN FOOTHILLS...
  
CITY           SKY/WX    TMP DP  RH WIND       PRES   REMARKS
COLO. SPRINGS  PTCLDY    56  51  84 N6        30.41R                  
A. F. ACADEMY  MOCLDY    51  48  91 N8        30.41R                  
ELLICOTT       FOG      N/A N/A N/A SE9       30.39R VSB 1/2          
FALCON         CLEAR     55  52  89 CALM      30.44S                  
FORT CARSON    CLEAR     55  51  85 N6        30.37R                  
LIMON          FOG       60  60 100 S8        30.36R VSB 1/2          
MONUMENT HILL  NOT AVBL                                               
TRINIDAD       CLOUDY    59  54  83 SW10      30.38R                  
$$

COZ042>045-048>051-090-091-301300-
...NORTHEAST COLORADO...
  
CITY           SKY/WX    TMP DP  RH WIND       PRES   REMARKS
GREELEY ARPT   CLEAR     54  50  87 N8        30.30R                  
AKRON          CLEAR     59  58  96 S10       30.30R                  
BURLINGTON     CLOUDY    64  61  90 S8        30.31S                  
WRAY           CLEAR     58  58 100 S5        30.28R                  
STERLING       CLEAR     59  55  88 S3        30.26S                  
HOLYOKE        CLEAR     54  52  94 S3        30.28S                  
FORT MORGAN    CLEAR     56  52  86 NE5       30.29R                  
$$

COZ086-089-092>099-301300-
...SOUTHEAST COLORADO...
  
CITY           SKY/WX    TMP DP  RH WIND       PRES   REMARKS
PUEBLO         PTCLDY    62  52  69 N5        30.30R                  
LA JUNTA       CLEAR     65  62  90 E8        30.28R                  
LAMAR          CLEAR     65  64  97 E3        30.28R FOG              
SPRINGFIELD      N/A     65  63  93 S12       30.33R                  
$$

Return to Home page


Western Regional Climate Center, wrcc@dri.edu